Hourly Data Report for September 05, 2017

All times are specified in Local Standard Time (LST). Add 1 hour to adjust for Daylight Saving Time where and when it is observed.

SANDY LAKE A
ONTARIO

53°03'51.000" N
93°20'40.000" W
289.90 m
6017401
71587
ZSJ

Related Data

No related data is available for this station

Download Data

Hourly Data (September 2017)
Hourly Data Report for September 5, 2017
Temp Definition
°C
Dew Point Temp Definition
°C
Rel Hum Definition
%
Wind Dir Definition
10's deg

Wind Spd Definition
km/h
Visibility Definition
km
Stn Press Definition
kPa
Hmdx Definition


Wind Chill Definition


Weather Definition


TIME
00:00 Legend Double Dagger 7.0 5.4 89 LegendMM LegendMM 16.1 97.67     LegendNANA
01:00 Legend Double Dagger 6.8 5.4 91 LegendMM LegendMM 16.1 97.71     Rain
02:00 Legend Double Dagger 6.8 5.8 93 LegendMM LegendMM 16.1 97.76     Rain
03:00 Legend Double Dagger 6.7 6.1 96 LegendMM LegendMM 6.4 97.82     Rain,Fog
04:00 Legend Double Dagger 6.6 6.0 96 LegendMM LegendMM 16.1 97.87     Rain
05:00 Legend Double Dagger 6.5 5.8 95 LegendMM LegendMM 16.1 97.92     LegendNANA
06:00 Legend Double Dagger 6.6 5.6 93 LegendMM LegendMM 16.1 97.98     LegendNANA
07:00 Legend Double Dagger 6.6 5.5 93 LegendMM LegendMM 16.1 98.03     LegendNANA
08:00 Legend Double Dagger 6.6 5.3 91 LegendMM LegendMM 16.1 98.08     LegendNANA
09:00 Legend Double Dagger 6.1 4.9 92 LegendMM LegendMM 16.1 98.17     LegendNANA
10:00 Legend Double Dagger 6.7 5.3 91 LegendMM LegendMM 16.1 98.22     LegendNANA
11:00 Legend Double Dagger 6.9 5.6 91 LegendMM LegendMM 16.1 98.29     LegendNANA
12:00 Legend Double Dagger 7.3 5.6 89 LegendMM LegendMM 16.1 98.33     LegendNANA
13:00 Legend Double Dagger 7.5 5.6 88 LegendMM LegendMM 16.1 98.37     LegendNANA
14:00 Legend Double Dagger 8.8 5.4 79 LegendMM LegendMM 16.1 98.38     LegendNANA
15:00 Legend Double Dagger 10.4 4.8 68 LegendMM LegendMM 16.1 98.37     LegendNANA
16:00 Legend Double Dagger 11.1 4.9 65 LegendMM LegendMM 16.1 98.40     LegendNANA
17:00 Legend Double Dagger 11.2 4.9 65 LegendMM LegendMM 16.1 98.41     LegendNANA
18:00 Legend Double Dagger 10.3 4.7 68 LegendMM LegendMM 16.1 98.42     LegendNANA
19:00 Legend Double Dagger 8.3 4.6 77 LegendMM LegendMM 16.1 98.46     LegendNANA
20:00 Legend Double Dagger 5.6 3.9 89 LegendMM LegendMM 16.1 98.49     LegendNANA
21:00 Legend Double Dagger 5.1 4.4 95 LegendMM LegendMM 16.1 98.53     LegendNANA
22:00 Legend Double Dagger 2.9 2.8 99 LegendMM LegendMM 16.1 98.53     LegendNANA
23:00 Legend Double Dagger 2.3 2.3 100 LegendMM LegendMM 16.1 98.52     LegendNANA

Notes on Data Quality.

Legend

  • E = Estimated
  • M = Missing
  • NA = Not Available
  • ‡ = Partner data that is not subject to review by the National Climate Archives
Date modified: